| time (UTC) | temp C | wind direction | speed KPH | gust KPH | rain 1hr cm | rain 24hr cm | rain mn cm | humidity % | barometer mb |
| 20260503233519 | 11 | 180 | 4.8 | 11.3 | 0.00 | 0.00 | 0.00 | 69 | 1013.4 |
| 20260503232519 | 11 | 180 | 4.8 | 11.3 | 0.00 | 0.00 | 0.00 | 69 | 1013.5 |
| 20260503231519 | 11 | 180 | 9.7 | 16.1 | 0.00 | 0.00 | 0.00 | 69 | 1013.6 |
| 20260503230519 | 11 | 203 | 8.0 | 19.3 | 0.00 | 0.00 | 0.00 | 68 | 1013.7 |
| 20260503225519 | 11 | 270 | 9.7 | 20.9 | 0.00 | 0.00 | 0.00 | 67 | 1014.1 |
| 20260503224518 | 11 | 203 | 8.0 | 22.5 | 0.00 | 0.00 | 0.00 | 65 | 1014.1 |
| 20260503223519 | 12 | 270 | 12.9 | 27.4 | 0.00 | 0.00 | 0.00 | 63 | 1014.1 |
| 20260503222558 | 12 | 270 | 9.7 | 20.9 | 0.00 | 0.00 | 0.00 | 64 | 1014.2 |
| 20260503221519 | 12 | 270 | 14.5 | 30.6 | 0.00 | 0.00 | 0.00 | 62 | 1014.2 |
| 20260503220558 | 13 | 270 | 17.7 | 37.0 | 0.00 | 0.00 | 0.00 | 60 | 1014.2 |
| 20260503215518 | 13 | 270 | 19.3 | 41.8 | 0.00 | 0.00 | 0.00 | 57 | 1014.0 |
| 20260503214518 | 15 | 270 | 14.5 | 41.8 | 0.00 | 0.00 | 0.00 | 44 | 1013.8 |
| 20260503213518 | 15 | 270 | 11.3 | 30.6 | 0.00 | 0.00 | 0.00 | 43 | 1013.9 |
| 20260503212559 | 16 | 248 | 12.9 | 29.0 | 0.00 | 0.00 | 0.00 | 42 | 1013.8 |
| 20260503211519 | 16 | 225 | 11.3 | 24.1 | 0.00 | 0.00 | 0.00 | 41 | 1013.9 |
| 20260503210518 | 16 | 270 | 16.1 | 32.2 | 0.00 | 0.00 | 0.00 | 41 | 1014.1 |
| 20260503205538 | 16 | 270 | 14.5 | 30.6 | 0.00 | 0.00 | 0.00 | 42 | 1014.1 |
| 20260503204518 | 16 | 225 | 12.9 | 29.0 | 0.00 | 0.00 | 0.00 | 41 | 1014.2 |
| 20260503203518 | 15 | 225 | 14.5 | 33.8 | 0.00 | 0.00 | 0.00 | 42 | 1014.3 |
| 20260503202518 | 16 | 293 | 11.3 | 32.2 | 0.00 | 0.00 | 0.00 | 41 | 1014.4 |
| 20260503201518 | 16 | 270 | 11.3 | 25.7 | 0.00 | 0.00 | 0.00 | 42 | 1014.4 |
| 20260503200538 | 16 | 225 | 8.0 | 19.3 | 0.00 | 0.00 | 0.00 | 42 | 1014.6 |
| 20260503195558 | 16 | 225 | 12.9 | 30.6 | 0.00 | 0.00 | 0.00 | 40 | 1014.7 |
| 20260503194539 | 16 | 293 | 11.3 | 33.8 | 0.00 | 0.00 | 0.00 | 40 | 1014.9 |
| 20260503193519 | 16 | 270 | 11.3 | 29.0 | 0.00 | 0.00 | 0.00 | 41 | 1015.0 |
| 20260503192518 | 16 | 270 | 9.7 | 24.1 | 0.00 | 0.00 | 0.00 | 42 | 1015.2 |
| 20260503191518 | 17 | 248 | 11.3 | 30.6 | 0.00 | 0.00 | 0.00 | 41 | 1015.3 |
| 20260503190518 | 16 | 203 | 16.1 | 37.0 | 0.00 | 0.00 | 0.00 | 40 | 1015.5 |
| 20260503185518 | 16 | 225 | 16.1 | 32.2 | 0.00 | 0.00 | 0.00 | 39 | 1015.7 |
| 20260503184520 | 16 | 225 | 14.5 | 41.8 | 0.00 | 0.00 | 0.00 | 41 | 1015.8 |
| 20260503183518 | 17 | 248 | 11.3 | 30.6 | 0.00 | 0.00 | 0.00 | 40 | 1016.0 |
| 20260503182518 | 16 | 270 | 14.5 | 32.2 | 0.00 | 0.00 | 0.00 | 38 | 1016.0 |
| 20260503181518 | 16 | 270 | 12.9 | 30.6 | 0.00 | 0.00 | 0.00 | 41 | 1016.1 |
| 20260503180518 | 16 | 270 | 11.3 | 24.1 | 0.00 | 0.00 | 0.00 | 43 | 1016.2 |
| 20260503175518 | 16 | 293 | 11.3 | 29.0 | 0.00 | 0.00 | 0.00 | 42 | 1016.4 |
| 20260503174518 | 17 | 270 | 9.7 | 22.5 | 0.00 | 0.00 | 0.00 | 41 | 1016.6 |
| 20260503173540 | 16 | 270 | 16.1 | 38.6 | 0.00 | 0.00 | 0.00 | 39 | 1016.6 |
| 20260503172518 | 16 | 270 | 12.9 | 27.4 | 0.00 | 0.00 | 0.00 | 41 | 1016.7 |
| 20260503171520 | 16 | 270 | 11.3 | 32.2 | 0.00 | 0.00 | 0.00 | 42 | 1016.9 |
| 20260503170518 | 16 | 270 | 11.3 | 29.0 | 0.00 | 0.00 | 0.00 | 42 | 1017.0 |
| 20260503150518 | 13 | 293 | 11.3 | 25.7 | 0.00 | 0.00 | 0.00 | 53 | 1018.1 |
| 20260503130518 | 8 | 225 | 9.7 | 19.3 | 0.00 | 0.00 | 0.00 | 61 | 1018.4 |
| 20260503110520 | 3 | 180 | 4.8 | 12.9 | 0.00 | 0.00 | 0.00 | 78 | 1018.0 |
| 20260503081520 | 1 | 203 | 1.6 | 3.2 | 0.00 | 0.00 | 0.00 | 85 | 1018.0 |
| 20260503080519 | 1 | 203 | 1.6 | 4.8 | 0.00 | 0.00 | 0.00 | 85 | 1018.0 |
| 20260503072519 | 1 | 0.0 | 0.0 | 0.00 | 0.00 | 0.00 | 85 | 1018.1 | |
| 20260503071519 | 1 | 0.0 | 3.2 | 0.00 | 0.00 | 0.00 | 85 | 1018.1 | |
| 20260503070518 | 1 | 0.0 | 1.6 | 0.00 | 0.00 | 0.00 | 86 | 1018.2 | |
| 20260503054519 | 2 | 225 | 1.6 | 3.2 | 0.00 | 0.00 | 0.00 | 83 | 1018.5 |
| 20260503053518 | 2 | 225 | 1.6 | 3.2 | 0.00 | 0.00 | 0.00 | 82 | 1018.6 |
| 20260503052518 | 2 | 225 | 1.6 | 3.2 | 0.00 | 0.00 | 0.00 | 82 | 1018.5 |
| 20260503051519 | 2 | 225 | 1.6 | 3.2 | 0.00 | 0.00 | 0.00 | 82 | 1018.6 |
| 20260503050518 | 2 | 0.0 | 3.2 | 0.00 | 0.00 | 0.00 | 82 | 1018.5 | |
| 20260503045519 | 2 | 0.0 | 3.2 | 0.00 | 0.00 | 0.00 | 82 | 1018.4 | |
| 20260503044518 | 2 | 0.0 | 1.6 | 0.00 | 0.00 | 0.00 | 81 | 1018.5 | |
| 20260503043519 | 2 | 0.0 | 1.6 | 0.00 | 0.00 | 0.00 | 81 | 1018.4 | |
| 20260503042539 | 2 | 0.0 | 4.8 | 0.00 | 0.00 | 0.00 | 80 | 1018.4 | |
| 20260503041518 | 2 | 0.0 | 0.0 | 0.00 | 0.00 | 0.00 | 80 | 1018.4 | |
| 20260503040518 | 2 | 0.0 | 0.0 | 0.00 | 0.00 | 0.00 | 79 | 1018.4 | |
| 20260503040019 | 2 | 0.0 | 1.6 | 0.00 | 0.00 | 0.00 | 79 | 1018.5 | |
| 20260503035058 | 3 | 0.0 | 3.2 | 0.00 | 0.00 | 0.00 | 77 | 1018.5 | |
| 20260503034019 | 3 | 0.0 | 1.6 | 0.00 | 0.00 | 0.00 | 77 | 1018.5 | |
| 20260503033019 | 3 | 0.0 | 3.2 | 0.00 | 0.00 | 0.00 | 75 | 1018.5 | |
| 20260503032018 | 3 | 0.0 | 1.6 | 0.00 | 0.00 | 0.00 | 75 | 1018.5 | |
| 20260503031018 | 3 | 0.0 | 1.6 | 0.00 | 0.00 | 0.00 | 74 | 1018.5 | |
| 20260503030018 | 4 | 203 | 1.6 | 3.2 | 0.00 | 0.00 | 0.00 | 74 | 1018.6 |
| 20260503025018 | 4 | 0.0 | 1.6 | 0.00 | 0.00 | 0.00 | 72 | 1018.7 | |
| 20260503024019 | 5 | 203 | 1.6 | 3.2 | 0.00 | 0.00 | 0.00 | 71 | 1018.8 |
| 20260503023018 | 5 | 0.0 | 3.2 | 0.00 | 0.00 | 0.00 | 70 | 1018.7 | |
| 20260503022018 | 5 | 0.0 | 3.2 | 0.00 | 0.00 | 0.00 | 70 | 1018.7 | |
| 20260503021018 | 5 | 293 | 1.6 | 3.2 | 0.00 | 0.00 | 0.00 | 71 | 1018.7 |
| 20260503020018 | 5 | 0.0 | 0.0 | 0.00 | 0.00 | 0.00 | 70 | 1018.7 | |
| 20260503015018 | 5 | 0.0 | 1.6 | 0.00 | 0.00 | 0.00 | 71 | 1018.6 | |
| 20260503014018 | 5 | 0.0 | 0.0 | 0.00 | 0.00 | 0.00 | 70 | 1018.6 | |
| 20260503013018 | 5 | 0.0 | 1.6 | 0.00 | 0.00 | 0.00 | 71 | 1018.5 | |
| 20260503012018 | 5 | 0.0 | 3.2 | 0.00 | 0.00 | 0.00 | 69 | 1018.4 | |
| 20260503011018 | 6 | 0.0 | 1.6 | 0.00 | 0.00 | 0.00 | 66 | 1018.4 | |
| 20260503010018 | 6 | 0.0 | 1.6 | 0.00 | 0.00 | 0.00 | 67 | 1018.5 | |
| 20260503005019 | 6 | 0.0 | 3.2 | 0.00 | 0.00 | 0.00 | 65 | 1018.3 | |
| 20260503004020 | 6 | 0.0 | 3.2 | 0.00 | 0.00 | 0.00 | 62 | 1018.3 | |
| 20260503003019 | 6 | 0.0 | 1.6 | 0.00 | 0.00 | 0.00 | 60 | 1018.3 | |
| 20260503002018 | 6 | 315 | 1.6 | 4.8 | 0.00 | 0.00 | 0.00 | 56 | 1018.1 |
| 20260503001038 | 7 | 315 | 1.6 | 4.8 | 0.00 | 0.00 | 0.00 | 55 | 1018.0 |
| 20260503000020 | 7 | 315 | 3.2 | 6.4 | 0.00 | 0.00 | 0.00 | 56 | 1018.2 |
| 20260502235018 | 7 | 338 | 1.6 | 3.2 | 0.00 | 0.00 | 0.00 | 56 | 1018.1 |
| 20260502234020 | 8 | 270 | 1.6 | 4.8 | 0.00 | 0.00 | 0.00 | 52 | 1018.2 |